Biblioteca

Música » Grateful Dead »

Morning Dew dherkes marcou esta faixa como favorita

47 execuções | Ir para página da faixa

De Terça 21 de fevereiro de 2012 a Segunda 21 de maio de 2012 Todo o tempo

Faixas (47)
Faixa Álbum Duração Data
Morning Dew 11:13 Mai 20 2012, 14h28
Morning Dew 11:13 Mai 19 2012, 7h45
Morning Dew 11:13 Mai 16 2012, 12h29
Morning Dew 11:13 Mai 15 2012, 22h37
Morning Dew 11:13 Mai 15 2012, 18h49
Morning Dew 11:13 Mai 15 2012, 9h04
Morning Dew 11:13 Mai 13 2012, 5h36
Morning Dew 11:13 Mai 13 2012, 1h25
Morning Dew 11:13 Mai 12 2012, 8h19
Morning Dew 11:13 Mai 11 2012, 23h11
Morning Dew 11:13 Mai 9 2012, 19h21
Morning Dew 11:13 Mai 9 2012, 17h24
Morning Dew 11:13 Mai 9 2012, 4h39
Morning Dew 11:13 Mai 8 2012, 15h25
Morning Dew 11:13 Mai 8 2012, 11h50
Morning Dew 11:13 Mai 6 2012, 19h24
Morning Dew 11:13 Mai 4 2012, 19h35
Morning Dew 11:13 Mai 4 2012, 18h21
Morning Dew 11:13 Mai 2 2012, 4h11
Morning Dew 11:13 Mai 1 2012, 23h34
Morning Dew 11:13 Abr 30 2012, 22h08
Morning Dew 11:13 Abr 29 2012, 20h21
Morning Dew 11:13 Abr 26 2012, 8h29
Morning Dew 11:13 Abr 25 2012, 13h37
Morning Dew 11:13 Abr 25 2012, 11h26
Morning Dew 11:13 Abr 23 2012, 17h30
Morning Dew 11:13 Abr 23 2012, 15h16
Morning Dew 11:13 Abr 22 2012, 0h26
Morning Dew 11:13 Abr 22 2012, 0h14
Morning Dew 11:13 Abr 21 2012, 12h41
Morning Dew 11:13 Abr 20 2012, 6h45
Morning Dew 11:13 Abr 17 2012, 10h02
Morning Dew 11:13 Abr 15 2012, 19h15
Morning Dew 11:13 Abr 15 2012, 18h35
Morning Dew 11:13 Abr 9 2012, 20h53
Morning Dew 11:13 Abr 9 2012, 19h14
Morning Dew 11:13 Mar 28 2012, 9h09
Morning Dew 11:13 Mar 21 2012, 3h17
Morning Dew 11:13 Mar 18 2012, 20h09
Morning Dew 11:13 Mar 15 2012, 1h49
Morning Dew 11:13 Mar 13 2012, 7h07
Morning Dew 11:13 Mar 13 2012, 2h31
Morning Dew 11:13 Mar 10 2012, 17h41
Morning Dew 11:13 Mar 9 2012, 11h02
Morning Dew 11:13 Mar 7 2012, 13h42
Morning Dew 11:13 Mar 3 2012, 7h34
Morning Dew 11:13 Fev 22 2012, 5h13